Regional Weather Roundup
Issued by NWS

Home | Current Version | Previous Version | Text Only | Print | Product List | Glossary Off
Versions: 1 2 3 4 5 6 7 8 9 10 11 12 13 14 15 16 17 18 19 20 21 22 23 24 25 26 27 28 29 30 31 32 33 34 35 36 37 38 39 40 41 42 43 44 45 46 47 48 49 50

000
ASUS43 KDMX 150008
RWRIA

WEATHER ROUNDUP FOR IOWA
NATIONAL WEATHER SERVICE DES MOINES IA
600 PM CST SUN FEB 14 2016

NOTE: "FAIR" INDICATES FEW OR NO CLOUDS BELOW 12,000 FEET WITH NO
SIGNIFICANT WEATHER AND/OR OBSTRUCTIONS TO VISIBILITY.

* - THESE STATIONS ARE NOT NWS STATIONS...THUS NOT UNDER NWS
QUALITY CONTROL.  THEY ALSO DO NOT REPORT WEATHER SUCH
AS PRECIPITATION OR FOG.

IAZ001>003-012>014-020>022-031>034-043>046-150100-
   NORTHWEST IOWA

CITY           SKY/WX    TMP DP  RH WIND       PRES   REMARKS
CARROLL *      CLOUDY    23  21  93 SE6       29.87S WCI  16
CHEROKEE *     CLOUDY    23  19  85 CALM      29.86S
DENISON *      CLOUDY    27  19  74 CALM      29.84S
LE MARS *      CLOUDY    25  21  86 CALM      29.87R
ORANGE CITY *  CLOUDY    21  19  93 CALM      29.84S
SHELDON *      CLOUDY    21  18  86 S7        29.83F WCI  13
SIOUX CITY     CLOUDY    30  21  69 CALM      29.86S
6HR MIN TEMP:  24; 6HR MAX TEMP:  30;

SPENCER        CLOUDY    20  15  81 S7        29.86R WCI  11
6HR MIN TEMP:  18; 6HR MAX TEMP:  20;

STORM LAKE *   CLOUDY    21  21 100 S6        29.85S WCI  14
$$

IAZ055>058-069>071-079>083-090>094-150100-
   SOUTHWEST IOWA

CITY           SKY/WX    TMP DP  RH WIND       PRES   REMARKS
ATLANTIC *     CLOUDY    30  23  74 N6        29.87R WCI  24
AUDUBON *      CLOUDY    27  21  80 CALM      29.86S
CLARINDA *     CLOUDY    39  30  70 NW13      29.88R WCI  32
COUNCIL BLFS *   N/A     34  30  86 NW6       29.86R WCI  29
CRESTON *      CLOUDY    28  25  86 NE6       29.87R WCI  22
HARLAN  *      CLOUDY    30  25  80 N7        29.89S WCI  23
LAMONI         CLOUDY    31  26  82 NE6       29.85R WCI  25
6HR MIN TEMP:  28; 6HR MAX TEMP:  36;

RED OAK *      CLOUDY    36  30  80 N3        29.87R
SHENANDOAH *   PTCLDY    37  32  81 NW6       29.88S WCI  33
$$

IAZ047>049-059>061-072>074-084-150100-
   CENTRAL IOWA

CITY           SKY/WX    TMP DP  RH WIND       PRES   REMARKS
AMES           CLOUDY    21  17  84 SE7       29.90S WCI  12
6HR MIN TEMP:  20; 6HR MAX TEMP:  22;

ANKENY *       CLOUDY    23  19  86 E7        29.90S WCI  15
BOONE *        CLOUDY    21  18  86 SE9       29.87S WCI  11
CHARITON *     CLOUDY    25  21  86 E8        29.87S WCI  16
DES MOINES     CLOUDY    24  17  74 E5        29.89S WCI  18
6HR MIN TEMP:  22; 6HR MAX TEMP:  25;

GRINNELL*      CLOUDY    19  18  93 E7        29.91S WCI  10
KNOXVILLE *    CLOUDY    23  18  80 E8        29.88S WCI  14
MARSHALLTOWN   CLOUDY    19  15  84 SE10      29.91R WCI   7
6HR MIN TEMP:  19; 6HR MAX TEMP:  20;

NEWTON *       CLOUDY    21  21 100 E9        29.90S WCI  11
PELLA *        CLOUDY    22  19  90 E6        29.91S WCI  14
$$

IAZ004>006-015-016-023>025-035-036-150100-
   NORTH CENTRAL IOWA

CITY           SKY/WX    TMP DP  RH WIND       PRES   REMARKS
ALGONA *       CLOUDY    21  18  86 SE9       29.87S WCI  11
CLARION *      CLOUDY    19  16  86 SE12      29.90R WCI   7
ESTHERVILLE    CLOUDY    19  16  88 S9        29.86R WCI   8
6HR MIN TEMP:  16; 6HR MAX TEMP:  19; 6HR PCP: TRACE;

FORT DODGE *   CLOUDY    21  16  79 SE6       29.89R WCI  14
MASON CITY     CLOUDY    17  13  84 SE12      29.91R WCI   4
6HR MIN TEMP:  16; 6HR MAX TEMP:  17; 6HR PCP: TRACE;

FOREST CITY *  CLOUDY    18  16  93 SE10      29.90R WCI   6
WEBSTER CITY * CLOUDY    21  18  86 SE9       29.87S WCI  11
IOWA FALLS *   CLOUDY    19  18  93 SE10      29.91R FOG     WCI   8
$$

IAZ007>011-017>019-026>030-037>042-050>054-066-150100-
   NORTHEAST IOWA

CITY           SKY/WX    TMP DP  RH WIND       PRES   REMARKS
CEDAR RAPIDS   LGT SNOW  18  16  92 SE9       29.94R FOG     WCI   7
6HR MIN TEMP:  18; 6HR MAX TEMP:  19; 6HR PCP: TRACE;

CHARLES CITY * CLOUDY    18  16  93 SE12      29.93S FOG     WCI   5
CLINTON *      MIX PCPN  19  15  84 SE18      30.00R WCI   4
DECORAH *      CLOUDY    18  14  86 SE9G15    29.94S WCI   6
DUBUQUE        LGT SNOW  17  13  84 SE14      29.97S FOG     WCI   3
6HR MIN TEMP:  15; 6HR MAX TEMP:  18; 6HR PCP: TRACE;

MONTICELLO *   CLOUDY    19  14  79 SE12      29.97S WCI   7
OELWEIN *      LGT SNOW  18  16  93 SE16      29.94S WCI   3
WATERLOO       FLURRIES  18  13  80 SE10      29.94S WCI   6
6HR MIN TEMP:  18; 6HR MAX TEMP:  19; 6HR PCP: TRACE;

$$

IAZ064-065-067-068-078-150100-
   EAST CENTRAL IOWA

CITY           SKY/WX    TMP DP  RH WIND       PRES   REMARKS
DAVENPORT      CLOUDY    19  15  84 SE15      29.98S WCI   5
6HR MIN TEMP:  18; 6HR MAX TEMP:  20; 6HR PCP: TRACE;

IOWA CITY      CLOUDY    19  16  88 E8        29.97S WCI   9
6HR MIN TEMP:  18; 6HR MAX TEMP:  20; 6HR PCP: TRACE;

MT. PLEASANT * CLOUDY    23  23  99 SE7       29.95S FOG     WCI  15
MUSCATINE *    CLOUDY    21  18  86 SE9       29.98S FOG     WCI  11
QUAD CITIES    CLOUDY    20  15  81 E9        29.98F WCI   9
6HR MIN TEMP:  18; 6HR MAX TEMP:  20; 6HR PCP:  0.11;

$$

IAZ062-063-075>077-085>089-095>099-150100-
   SOUTHEAST IOWA

CITY           SKY/WX    TMP DP  RH WIND       PRES   REMARKS
BURLINGTON     CLOUDY    21  19  92 SE8       29.94S WCI  11
6HR MIN TEMP:  18; 6HR MAX TEMP:  21; 6HR PCP:  0.02;

FAIRFIELD *    CLOUDY    21  19  93 E8        29.93S FOG     WCI  12
FORT MADISON * CLOUDY    21  19  93 SE6       29.95S FOG     WCI  14
KEOKUK *       CLOUDY    23  23 100 SE7       29.94S FOG     WCI  15
OSKALOOSA *    CLOUDY    20  19  96 E10       29.91S FOG     WCI   9
CENTERVILLE *  CLOUDY    25  23  93 E6        29.89R WCI  18
OTTUMWA        CLOUDY    21  20  96 E8        29.91S FOG     WCI  11
6HR MIN TEMP:  20; 6HR MAX TEMP:  21; 6HR PCP: TRACE;

WASHINGTON *   CLOUDY    19  19 100 SE9       29.96S FOG     WCI   9
$$

ABBREVIATIONS USED IN REMARKS
   TC - TEMPERATURES IN CELSIUS
  WCI - WIND CHILL INDEX
   HX - HEAT INDEX
  VSB - VISIBILITY
$$




USA.gov is the U.S. government's official web portal to all federal, state and local government web resources and services.